Regional Weather Roundup
Issued by NWS Little Rock, AR

Home | Current Version | Previous Version | Graphics & Text | Print | Product List | Glossary On
Versions: 1 2 3 4 5 6 7 8 9 10 11 12 13 14 15 16 17 18 19 20 21 22 23 24 25 26 27 28 29 30 31 32 33 34 35 36 37 38 39 40 41 42 43 44 45 46 47 48 49 50
354
ASUS44 KLZK 160205
RWRLZK

WEATHER ROUNDUP FOR ARKANSAS
NATIONAL WEATHER SERVICE LITTLE ROCK AR
800 PM CST SUN JAN 15 2017

NOTE: "FAIR" INDICATES FEW OR NO CLOUDS BELOW 12,000 FEET WITH NO
SIGNIFICANT WEATHER AND/OR OBSTRUCTIONS TO VISIBILITY.

ARZ001-003-010-029-160300-
NORTHWEST ARKANSAS

CITY           SKY/WX    TMP DP  RH WIND       PRES   REMARKS
FAYETTEVILLE   CLOUDY    52  52 100 NE3       30.06F
FORT SMITH     CLOUDY    48  46  93 E12       30.07S
HARRISON       FOG       42  42 100 SE10      30.14F VSB 1/4
BENTONVILLE    CLOUDY   N/A N/A N/A E12       30.07F
ROGERS         HVY RAIN  46  46 100 E10       30.08F
SILOAM SPGS    CLOUDY    48  46  93 E8        30.05F
HIGHFILL       CLOUDY    47  47 100 E9        30.06F
SPRINGDALE     RAIN      48  48 100 E12       30.08F FOG
$$

ARZ004-005-016-160300-
NORTH CENTRAL ARKANSAS

CITY           SKY/WX    TMP DP  RH WIND       PRES   REMARKS
BATESVILLE     CLOUDY    43  39  87 NE5       30.22S VSB 1/2
FLIPPIN        CLOUDY    43  37  81 E6        30.15F
MTN HOME       LGT RAIN  41  41 100 SE8       30.16F VSB 1
$$

ARZ040-041-160300-
WEST CENTRAL ARKANSAS

CITY           SKY/WX    TMP DP  RH WIND       PRES   REMARKS
MENA           CLOUDY    54  52  94 E5        30.06S
MOUNT IDA      CLOUDY    51  50  96 E3        30.06F
$$

ARZ009-017-025-026-028-160300-
NORTHEAST ARKANSAS

CITY           SKY/WX    TMP DP  RH WIND       PRES   REMARKS
JONESBORO      FOG       44  43  96 NE10      30.22F VSB 1/2
NEWPORT        FOG       43  43 100 NE10      30.22F VSB 3/4
WALNUT RIDGE   CLOUDY    43  39  87 NE8       30.23F VSB 1/2
BLYTHEVILLE    CLOUDY    47  46  97 NE7       30.24S
$$

ARZ022-023-033-042-044-160300-
CENTRAL ARKANSAS

CITY           SKY/WX    TMP DP  RH WIND       PRES   REMARKS
LITTLE ROCK    LGT RAIN  44  44 100 E13       30.16F VSB 1/4
N LITTLE ROCK    N/A     44  43  99 E9        30.18F
JACKSONVILLE   FOG       44  44 100 NE9       30.15F VSB 1
SEARCY         LGT RAIN  43  43 100 NE9       30.21S VSB 3/4
HOT SPRINGS    CLOUDY    49  48  97 E8        30.11F
RUSSELLVILLE   CLOUDY    47  45  93 E7        30.12F
CLINTON        CLOUDY    46  45  93 E5        30.17F
$$

ARZ036-160300-
EAST ARKANSAS

CITY           SKY/WX    TMP DP  RH WIND       PRES   REMARKS
WEST MEMPHIS   FOG       49  49 100 E7        30.19F VSB 1/4
$$

ARZ050-053-066-070-073-160300-
SOUTHWEST ARKANSAS

CITY           SKY/WX    TMP DP  RH WIND       PRES   REMARKS
ARKADELPHIA    CLOUDY    51  49  92 NE6       30.11F
CAMDEN         CLOUDY    55  50  82 E3        30.11S
TEXARKANA      LGT RAIN  58  58 100 E6        30.03F
EL DORADO      CLOUDY    59  56  89 NE8       30.10S
DE QUEEN       CLOUDY    54  54 100 E10       30.03S
$$

ARZ056-057-069-160300-
SOUTHEAST ARKANSAS

CITY           SKY/WX    TMP DP  RH WIND       PRES   REMARKS
PINE BLUFF     FOG       48  48 100 NE8       30.14F VSB 1/2
STUTTGART      CLOUDY    48  43  81 NE9       30.17F VSB 1/2
MONTICELLO     MOCLDY    53  51  93 NE6       30.13F

$$






USA.gov is the U.S. government's official web portal to all federal, state and local government web resources and services.